FENGYUN 1C DEB, 36278

Orbit data source: Space-Track

FENGYUN 1C DEB, 36278 is space debris in SSO originally from a launch on Mon, 10 May 1999 UTC launched from the Taiyaun Space Center, China (TSC). Fengyun 1C debris stems from the Chinese weather satellite Fengyun-1C, which was intentionally destroyed by a Chinese anti-satellite missile in 2007. This event dramatically increased the amount of space debris, with thousands of trackable fragments posing hazards to satellites and human spaceflight. The Fengyun 1C debris cloud has become a focal point in discussions about space sustainability and the need for international regulations to prevent the creation of new debris.

Loading next visibility...
Identifier
36278, 1999-025DXF
Orbit
SSO
Country
Flag of CNCN / PRC
Related business
Manufacturer
Unknown
Mission
Spacecraft
Bus & Motor
Unknown
Mass
Unknown
Launch date (UTC)
1999-05-10 (27 years ago)
Launch vehicle
Unknown
Launch site
Taiyaun Space Center, China (TSC)
Object type
Payload
Rocket body
Debris
Shape & HBR
Unknown shape, 0.1 m
Radar Cross Section
Small (<0.1 m²)

Expand to show TLE details & history
Last TLE update: 3 days ago

TLE from 3 days ago
0 FENGYUN 1C DEB
1 36278U 99025DXF 26170.05523807  .00000452  00000-0  24004-3 0  9991
2 36278  99.1284  98.4245 0061995 115.6746 245.0848 14.17688103961447
Epoch: 2026-06-19T01:19Z
TLE epoch observation values (Epoch: 2026-06-19T01:19:32.569Z)
Latitude
Longitude
171.24909°
Altitude
855.145 km
Speed
7.415 km/s
True Right ascension
06h 33m 41s
True Declination
0° 00' 00"
Sunlit
Object was in daylight at epoch
Visualization orbit readout
Latitude
Unknown
Longitude
Unknown
Altitude
Unknown
Speed
Unknown
Apparent Right ascension
Unknown
Apparent Declination
Unknown
Sunlit
N/A
Visualization observer readout
Local Sidereal Time
23:21:47
Azimuth
Unknown
Elevation
Unknown
Doppler factor
Unknown
Orbital elements
Apogee altitude
875.053 km
Perigee altitude
785.675 km
Semi-major axis
7,208.501 km
Eccentricity
0.0062
Inclination
99.1284°
RAAN
98.4245°
Arg. of periapsis
115.6746°
True anomaly
244.44262°
Mean anomaly
245.0848°
Eccentric anomaly
244.7635°
Mean motion
3.5463 °/min
Orbital period
101.51 mins
BSTAR
0.00024004
Loading maneuver chart data...
Computing Atmospheric mass density...

Documentation

Showing up to 5 results
|